Weather in Obraztsovo-Travino

Russia / Astrakhan Oblast     45°57′43″N   48°00′12″E
В апреле 2022 года жителям России запретили посещать сайт meteo.paraplan.net по решению Генеральной прокуратуры. Аудитория сайта уменьшилась в 10 раз. Владельцы сайта не видят смысла в поддержке погодного сервера в таких условиях. Сайт будет закрыт в октябре.
temp.,
°C
wind,
m/s
gust,
m/s
humid.,
%
clouds,
%
prec.,
mm/h
press.,
hPa
HPBL,
m
4 october, tue
tue401:00+18ese4873100 1.6 1016474
04:00+19se81363100 1.8 1016852
07:00+18se81454100 0.0 1017594
10:00+21se9114448 0.0 1018808
13:00+22se9113597 0.0 1018992
16:00+20se91033100 0.0 1019973
19:00+17ese5950100 0.0 1019363
22:00+16e356058 0.0 1020103
5 october, wed
wed501:00+17ese4105793 0.0 1020182
04:00+16se4106217 0.0 1020219
07:00+15ese466810 0.0 1021101
10:00+22se674214 0.0 1021770
13:00+24sse6738100 0.0 10201041
16:00+23s5544100 0.0 1021994
19:00+19sse3366100 0.0 102259
22:00+18ssw1173100 0.0 102211
6 october, thu
thu601:00+17nnw487455 0.0 1022267
04:00+16nnw5984100 0.0 1023475
07:00+15nnw3782100 0.0 1024428
10:00+17nnw4560100 0.0 1024661
13:00+19nw5537100 0.1 1024968
16:00+17w2346100 0.3 1024125
19:00+16w345099 0.0 102558
22:00+14wnw34551 0.0 102547
7 october, fri
fri701:00+12n34610 0.0 102547
04:00+11nnw22615 0.0 102511
07:00+11nnw22600 0.0 102610
10:00+16nw23410 0.0 1026653
13:00+19nw33340 0.0 10251557
16:00+20nw33320 0.0 10241544
19:00+16wnw33441 0.0 102527
22:00+14sse11503 0.0 102510
8 october, sat
sat801:00+13sw11600 0.0 102510
04:00+12se11620 0.0 102510
07:00+12ese22615 0.0 102610
10:00+18ese33425 0.0 1026534
13:00+21ese55345 0.0 10251531
16:00+20ese66385 0.0 10241033
19:00+15ese48615 0.0 1025212
22:00+14e410715 0.0 1025247